Observations for Trim Market St
| Time | AQI | Temp °C | Hum % | Pres Pa | CO μg/m³ | H₂S μg/m³ | NO μg/m³ | NO₂ μg/m³ | O₃ μg/m³ | SO₂ μg/m³ | PM1 μg/m³ | PM2.5 μg/m³ | PM10 μg/m³ |
|---|---|---|---|---|---|---|---|---|---|---|---|---|---|
| Tuesday 25 August 2026 | |||||||||||||
| 18:24 | 3 | 20.6 | 61 | 57,610 | 0.02 | 0 | 1.16 | 14.85 | 61.98 | 0 | 3.56 | 5.48 | 7.53 |
| 18:22 | 3 | 20.7 | 61 | 57,626 | 0.01 | 0 | 1.08 | 14.5 | 61.58 | 0 | 4.99 | 7.48 | 11.62 |
| 18:21 | 3 | 20.7 | 61 | 57,631 | 0.01 | 0 | 1.1 | 17.5 | 72.85 | 0 | 5.7 | 7.49 | 10.26 |
| 18:20 | 3 | 20.7 | 61 | 57,636 | 0.02 | 0 | 1.1 | 14.97 | 61.77 | 0 | 4.99 | 6.99 | 10.26 |
| 18:18 | 3 | 20.8 | 60 | 57,645 | 0.03 | 0 | 1.21 | 15.91 | 63.57 | 0 | 5.7 | 9 | 12.31 |
| 18:16 | 3 | 20.8 | 60 | 57,648 | 0.02 | 0 | 1.3 | 14.13 | 62.23 | 0 | 5.7 | 7.5 | 11.63 |
| 18:12 | 3 | 20.8 | 60 | 57,652 | 0.02 | 0 | 1.11 | 13.67 | 62.4 | 0 | 4.28 | 6.51 | 10.27 |
| 18:10 | 3 | 20.9 | 60 | 57,657 | 0 | 0 | 0.96 | 14.99 | 61.61 | 0 | 4.28 | 5.52 | 7.53 |
| 18:09 | 3 | 20.9 | 60 | 57,658 | 0.02 | 0 | 0.9 | 17.17 | 62.43 | 0 | 4.99 | 7.02 | 9.58 |
| 18:08 | 3 | 20.9 | 60 | 57,660 | 0.05 | 0 | 0.94 | 17.78 | 63.16 | 0 | 4.28 | 6.52 | 9.59 |
| 17:58 | 3 | 21 | 60 | 57,675 | 0.01 | 0 | 1.12 | 14.94 | 63.27 | 0 | 4.28 | 8.54 | 12.34 |
| 17:57 | 3 | 21 | 60 | 57,673 | 0 | 0 | 1.21 | 16.07 | 61.54 | 0 | 4.99 | 7.53 | 10.96 |
| 17:56 | 3 | 21 | 60 | 57,673 | 0.01 | 0 | 1.19 | 23.66 | 61.96 | 0 | 4.28 | 7.54 | 10.28 |
| 17:55 | 3 | 21.1 | 60 | 57,672 | 0 | 0 | 1.06 | 16.6 | 61.47 | 0 | 4.28 | 6.04 | 8.9 |
| 17:54 | 3 | 21.1 | 60 | 57,669 | 0.01 | 0 | 1.09 | 22.07 | 61.24 | 0 | 5.7 | 8.54 | 14.4 |
| 17:53 | 3 | 21.1 | 60 | 57,666 | 0.06 | 0 | 1.12 | 18.04 | 61.65 | 0 | 4.28 | 6.54 | 10.28 |
| 17:52 | 3 | 21.1 | 60 | 57,663 | 0.02 | 0 | 1.04 | 21.7 | 59.87 | 0 | 4.99 | 6.54 | 13.03 |
| 17:51 | 3 | 21.1 | 60 | 57,660 | 0 | 0 | 1.1 | 18.66 | 61.1 | 0 | 5.7 | 7.53 | 10.28 |
| 17:50 | 3 | 21.2 | 60 | 57,654 | 0 | 0 | 1.16 | 21.25 | 60.9 | 0 | 4.28 | 7.53 | 10.96 |
| 17:49 | 3 | 21.2 | 60 | 57,647 | 0.01 | 0 | 1.17 | 18.3 | 60.77 | 0 | 6.41 | 7.53 | 10.27 |